Location: Monrovia
(34.7865°N, 86.7139°W)
Time: 14:37:30
(UTC+00:00)

Okean 2 - Pass Details

Date: 14 July 2020
Orbit: 559 x 578 km, 82.5° (Epoch: 12 August)

Event Time Altitude Azimuth Distance (km) Brightness Sun altitude
Rises 08:59:35 0° 359° (N) 2,754 7.6 -18.3°
Reaches altitude 10° 09:01:50 10° 5° (N) 1,853 6.7 -18.0°
Maximum altitude 09:05:47 49° 81° (E) 722 4.2 -17.4°
Drops below altitude 10° 09:09:43 10° 157° (SSE) 1,838 5.8 -16.8°
Enters shadow 09:10:47 - 160° (SSE) 2,261 6.2 -16.6°
